This is the latest recevied weather packets stored in our database for station/object K8WEH. If no packets are shown the sender has not sent any weather packets the latest 10 day(s).
| Time | Temp. | Humidity | Pressure | Rain* | Wind** | Luminosity | Snow |
|---|---|---|---|---|---|---|---|
| 1777837860 | 15° C | 39% | 1019 hPa | 0 mm | - | - | - |
| 1777837560 | 15° C | 37% | 1019.1 hPa | 0 mm | - | - | - |
| 1777837259 | 15° C | 37% | 1019.2 hPa | 0 mm | - | - | - |
| 1777836959 | 15° C | 37% | 1019.5 hPa | 0 mm | - | - | - |
| 1777836659 | 15.56° C | 37% | 1019.4 hPa | 0 mm | - | - | - |
| 1777836359 | 15.56° C | 36% | 1019.6 hPa | 0 mm | - | - | - |
| 1777836058 | 15.56° C | 39% | 1019.3 hPa | 0 mm | - | - | - |
| 1777835764 | 15.56° C | 35% | 1019.6 hPa | 0 mm | - | - | - |
| 1777835458 | 15.56° C | 36% | 1019.7 hPa | 0 mm | - | - | - |
| 1777835156 | 15.56° C | 35% | 1019.6 hPa | 0 mm | - | - | - |
| 1777834855 | 15° C | 38% | 1019.5 hPa | 0 mm | - | - | - |
| 1777834553 | 15.56° C | 35% | 1019.6 hPa | 0 mm | - | - | - |
| 1777834252 | 15.56° C | 35% | 1019.7 hPa | 0 mm | - | - | - |
| 1777833951 | 16.11° C | 37% | 1019.8 hPa | 0 mm | - | - | - |
| 1777833651 | 15.56° C | 36% | 1020.1 hPa | 0 mm | - | - | - |
| 1777833349 | 15.56° C | 37% | 1020.1 hPa | 0 mm | - | - | - |
| 1777833048 | 15.56° C | 35% | 1020.3 hPa | 0 mm | - | - | - |
| 1777832748 | 15° C | 37% | 1020.3 hPa | 0 mm | - | - | - |
| 1777832447 | 15° C | 35% | 1020.3 hPa | 0 mm | - | - | - |
| 1777832156 | 15.56° C | 36% | 1020.4 hPa | 0 mm | - | - | - |
| 1777831846 | 15° C | 39% | 1020.5 hPa | 0 mm | - | - | - |
| 1777831545 | 15.56° C | 38% | 1020.5 hPa | 0 mm | - | - | - |
| 1777831244 | 16.11° C | 36% | 1020.6 hPa | 0 mm | - | - | - |
| 1777830943 | 16.11° C | 38% | 1020.9 hPa | 0 mm | - | - | - |
| 1777830641 | 15.56° C | 39% | 1020.8 hPa | 0 mm | - | - | - |
* Rain latest hour (hover to see other rain measurements)
** Current wind speed in m/s (hover to see current wind gust speed)